OBJECT D, 61241

Orbit data source: Space-Track

You're viewing an Uncataloged Satellite

Recently launched and/or uncataloged satellites may have evolving metadata. Metadata may include but not limited to: Owner, Maufacturer, Bus, Motor, and Mission.

OBJECT D, 61241 is a Chinese satellite in SSO that was launched on Tue, 24 Sep 2024 UTC via a LIJIAN-1 launch vehicle from the Jiuquan Satellite Launch Center, China (JSC). Unknown objects in Earth's orbit typically refer to objects detected orbiting the Earth but have not yet been identified or cataloged. These objects could be anything from previously untracked satellites, spent rocket stages, debris from satellite collisions, or even natural meteoroids temporarily captured by Earth's gravity.

Loading next visibility...
Identifier
61241, 2024-174D
Orbit
SSO
Country
Flag of CNCN / PRC
Related business
None
Manufacturer
Unknown
Mission
Operational Commercial Meteo Radio Occ.
Bus & Motor
Unknown
Mass
Unknown
Launch date (UTC)
2024-09-24 (1 year ago)
Launch vehicle
LIJIAN-1
Launch site
Jiuquan Satellite Launch Center, China (JSC)
Object type
Unknown
Shape & HBR
Box + 1 Pan, 2.5 m
Radar Cross Section
5.339 m², Medium (>0.1 m² and < 1m²)

Expand to show TLE details & history
Last TLE update: 9 hours ago

TLE from 9 hours ago
0 OBJECT D
1 61241U 24174D   25307.97079454  .00009890  00000-0  39517-3 0  9998
2 61241  97.4456 314.8428 0011393 312.8109  47.2170 15.25272139 61535
Epoch: 2025-11-03T23:17Z
TLE epoch observation values (Epoch: 2025-11-03T23:17:56.648Z)
Latitude
-0.00004°
Longitude
-78.10775°
Altitude
487.754 km
Speed
7.624 km/s
True Right ascension
20h 59m 22s
True Declination
0° 00' 00"
Sunlit
Object was in daylight at epoch
Visualization orbit readout
Latitude
Unknown
Longitude
Unknown
Altitude
Unknown
Speed
Unknown
Apparent Right ascension
Unknown
Apparent Declination
Unknown
Sunlit
N/A
Visualization observer readout
Local Sidereal Time
03:51:53
Azimuth
Unknown
Elevation
Unknown
Doppler factor
Unknown
Orbital elements
Apogee altitude
494.75 km
Perigee altitude
479.108 km
Semi-major axis
6,865.066 km
Eccentricity
0.00114
Inclination
97.4456°
RAAN
314.8428°
Arg. of periapsis
312.8109°
True anomaly
47.31291°
Mean anomaly
47.217°
Eccentric anomaly
47.26495°
Mean motion
3.81572 °/min
Orbital period
94.35 mins
BSTAR
0.00039517
Loading maneuver chart data...
Computing Atmospheric mass density...
Loading historical data...
Loading historical data...
Loading historical data...
Loading historical data...
Loading historical data...
Loading historical data...
Loading historical data...

Documentation

Showing up to 5 results
|